TimeEST,TemperatureF,Dew PointF,Humidity,Sea Level PressureIn,VisibilityMPH,Wind Direction,Wind SpeedMPH,Gust SpeedMPH,PrecipitationIn,Events,Conditions,WindDirDegrees,DateUTC
12:55 AM,27.7,24.8,89,30.45,10.0,Calm,Calm,-,N/A,,Clear,0,2012-11-15 05:55:00
1:55 AM,29.7,24.4,81,30.45,10.0,Calm,Calm,-,N/A,,Clear,0,2012-11-15 06:55:00
2:55 AM,26.8,24.3,90,30.45,10.0,Calm,Calm,-,N/A,,Clear,0,2012-11-15 07:55:00
3:55 AM,27.5,24.4,88,30.43,10.0,Calm,Calm,-,N/A,,Clear,0,2012-11-15 08:55:00
4:55 AM,26.6,24.4,92,30.44,10.0,Calm,Calm,-,N/A,,Clear,0,2012-11-15 09:55:00
5:55 AM,27.3,24.3,88,30.44,10.0,Calm,Calm,-,N/A,,Clear,0,2012-11-15 10:55:00
6:55 AM,27.7,24.6,88,30.44,10.0,Calm,Calm,-,N/A,,Clear,0,2012-11-15 11:55:00
7:55 AM,30.4,25.7,83,30.45,10.0,Calm,Calm,-,N/A,,Clear,0,2012-11-15 12:55:00
8:55 AM,33.4,28.0,81,30.44,10.0,Calm,Calm,-,N/A,,Clear,0,2012-11-15 13:55:00
9:55 AM,37.4,25.5,62,30.44,10.0,ENE,5.8,-,N/A,,Clear,70,2012-11-15 14:55:00
10:55 AM,40.5,26.4,57,30.43,10.0,NE,5.8,-,N/A,,Clear,50,2012-11-15 15:55:00
11:55 AM,42.6,26.4,53,30.41,10.0,ESE,5.8,-,N/A,,Clear,110,2012-11-15 16:55:00
12:55 PM,44.2,27.3,51,30.39,10.0,Variable,4.6,-,N/A,,Clear,0,2012-11-15 17:55:00
1:55 PM,44.4,27.5,52,30.37,10.0,Calm,Calm,-,N/A,,Clear,0,2012-11-15 18:55:00
2:55 PM,44.1,26.4,50,30.36,10.0,Calm,Calm,-,N/A,,Clear,0,2012-11-15 19:55:00
3:55 PM,43.5,27.3,53,30.35,10.0,Calm,Calm,-,N/A,,Clear,0,2012-11-15 20:55:00
4:55 PM,41.0,29.5,64,30.35,10.0,Calm,Calm,-,N/A,,Clear,0,2012-11-15 21:55:00
5:55 PM,36.9,29.7,75,30.35,10.0,Calm,Calm,-,N/A,,Clear,0,2012-11-15 22:55:00
6:55 PM,35.1,28.8,78,30.35,10.0,Calm,Calm,-,N/A,,Clear,0,2012-11-15 23:55:00
7:55 PM,33.6,28.6,82,30.35,10.0,Calm,Calm,-,N/A,,Clear,0,2012-11-16 00:55:00
8:55 PM,33.3,28.2,82,30.34,10.0,Calm,Calm,-,N/A,,Clear,0,2012-11-16 01:55:00
9:55 PM,32.4,28.2,85,30.34,10.0,Calm,Calm,-,N/A,,Clear,0,2012-11-16 02:55:00
10:55 PM,30.2,27.9,91,30.32,10.0,Calm,Calm,-,N/A,,Clear,0,2012-11-16 03:55:00
11:55 PM,31.1,27.9,88,30.32,10.0,Calm,Calm,-,N/A,,Clear,0,2012-11-16 04:55:00